This demonstration page uses our WeatherBlox Daily Observations layout. Learn more.

41.55636, -103.73856

Hourly Observations for May 1, 2019

Temp ( °F °C ) Dew Point ( °F °C ) Humidity (%) Winds ( mph kmh ) Pressure ( in mb ) Visibility ( mi km ) Precip ( " mm )
12:58 am 00:58 Mostly Cloudy with Freezing Fog 31 -0.7 29 -1.4 95 95 E 8 13 30.05 1018 1 1.60934 0 0
1:58 am 01:58 Mostly Cloudy with Freezing Fog 30 -1.2 29 -1.8 96 96 E 7 11 30.04 1017 5 8.0467 0 0
2:58 am 02:58 Mostly Cloudy with Freezing Fog 29 -1.6 28 -2.1 96 96 E 6 9 30.06 1018 1 1.60934 0 0
3:58 am 03:58 Mostly Cloudy with Freezing Fog 29 -1.8 28 -2.3 96 96 E 6 9 30.07 1018 5 8.0467 0 0
4:58 am 04:58 Mostly Cloudy with Freezing Fog 29 -1.7 28 -2.3 96 96 E 7 11 30.05 1018 0.25 0.402335 0 0
5:58 am 05:58 Mostly Cloudy with Scattered Snow Showers 29 -1.6 28 -2.3 95 95 SE 10 17 30.03 1017 0.25 0.402335 0 0
6:58 am 06:58 Mostly Cloudy with Light Freezing Drizzle 29 -1.6 28 -2.2 96 96 SE 12 19 29.99 1016 2.75 4.425685 0 0
7:58 am 07:58 Cloudy with Light Freezing Drizzle 29 -1.5 28 -2.1 96 96 SE 17 28 29.94 1014 3 4.82802 0 0
8:58 am 08:58 Cloudy 30 -1.2 29 -1.9 95 95 SSE 18 30 29.95 1014 10 16.0934 0 0
9:58 am 09:58 Cloudy with Light Snow 31 -0.8 29 -1.4 96 96 SSW 5 7 30.01 1016 1 1.60934 0.01 0.254
10:58 am 10:58 Mostly Cloudy with Scattered Snow Showers 30 -1 29 -1.6 96 96 SE 15 24 29.93 1013 4 6.43736 0.02 0.508
11:58 am 11:58 Mostly Cloudy with Freezing Fog 30 -1.2 29 -1.8 96 96 S 7 11 30.01 1016 3 4.82802 0.02 0.508
1:58 pm 13:58 Mostly Cloudy with Scattered Snow Showers 31 -0.4 30 -1 96 96 SSW 7 11 30.03 1017 3 4.82802 0.02 0.508
2:58 pm 14:58 Mostly Cloudy 32 0 31 -0.5 96 96 SSW 9 15 30.03 1017 10 16.0934 0.01 0.254
3:58 pm 15:58 Mostly Sunny 36 2 32 0 87 87 WNW 15 24 30.05 1018 10 16.0934 0 0
4:59 pm 16:59 Mostly Cloudy 33 0.8 31 -0.4 92 92 NW 20 31 30.09 1019 10 16.0934 0 0
5:58 pm 17:58 Mostly Cloudy 33 0.8 30 -1 88 88 NW 24 39 30.1 1019 10 16.0934 0 0
6:58 pm 18:58 Mostly Cloudy 38 3.2 30 -0.9 75 75 NNW 24 39 30.08 1019 10 16.0934 0 0
7:58 pm 19:58 Mostly Cloudy 37 2.6 29 -1.9 73 73 N 20 31 30.12 1020 10 16.0934 0 0
8:58 pm 20:58 Mostly Cloudy 39 4 29 -1.4 68 68 N 17 28 30.14 1021 10 16.0934 0 0
9:58 pm 21:58 Mostly Sunny 40 4.7 29 -1.5 64 64 NNW 22 35 30.11 1020 10 16.0934 0 0
11:58 pm 23:58 Mostly Sunny 40 4.3 27 -2.7 61 61 N 13 20 30.17 1022 10 16.0934 0 0

Powered by AerisWeather